User: anonymous   Login
Location: Newark
(25.0000°N, 73.5000°E)
Time: 23:38:57
(UTC+00:00)
Language:

A-11 Canister half - Orbit

View from above orbital plane
View from above orbital plane
View from above satellite
View from above satellite

Ground track
Ground track

The orbit data is extracted from the following two-line orbital elements,

1 00053U 60009E   21211.36462272 -.00000009  00000-0  73917-3 0  9992
2 00053  47.2773  81.0469 0097079 206.5468 153.0328 12.17256435718252
Epoch (UTC): 30 July 2021 08:45:03
Eccentricity: 0.0097079
inclination: 47.2773°
perigee height: 1527 km
apogee height: 1682 km
right ascension of ascending node: 81.0469°
argument of perigee: 206.5468°
revolutions per day: 12.17256435
mean anomaly at epoch: 153.0328°
orbit number at epoch: 71825

The dashed part of the orbit path shows where the satellite is in the earth's shadow,  

DLR